Wind_Speed
12 12 13 15 17 20 22 25 27 29 31 33 36 38 41 43 45 47 47 48 47 45 44 45 47 49 52 55 57 59 61 61 61 60 57 54 51 49 46 45 45 44 44 45
14 15 16 18 21 22 24 26 28 30 32 35 37 40 43 45 47 47 48 47 45 43 43 44 47 50 53 56 58 60 61 62 61 60 58 54 50 47 45 45 45 45 44 42
16 16 17 20 22 24 25 27 30 32 34 36 38 41 45 46 47 48 48 46 44 42 43 45 48 51 54 58 60 61 62 61 60 58 55 52 49 45 44 44 46 47 46 44
17 18 20 22 24 25 26 28 31 34 36 38 40 42 46 48 49 49 47 45 42 42 43 47 50 53 57 59 61 62 61 61 59 56 53 50 47 44 42 42 44 46 47 46
19 21 22 24 26 27 29 30 33 36 39 41 41 41 44 46 48 48 47 45 43 43 45 48 51 54 58 60 61 61 61 60 57 55 51 47 43 40 38 38 39 43 46 46
22 23 25 26 27 29 31 32 35 38 40 43 44 45 45 46 48 49 48 46 45 45 46 49 52 55 58 60 60 60 59 57 55 51 46 41 36 34 33 33 35 37 41 43
23 23 24 26 28 31 33 35 37 39 41 44 46 48 49 49 51 52 50 48 46 45 47 49 52 56 57 59 59 59 57 55 52 48 43 37 32 28 27 27 31 35 37 39
23 23 25 26 29 31 32 34 36 39 41 43 45 47 49 49 51 52 51 48 46 45 46 49 53 56 57 58 58 56 55 52 49 46 40 34 28 23 22 22 26 31 34 36
22 23 25 27 29 31 33 34 37 39 41 43 45 47 49 50 50 52 52 49 46 45 46 49 52 55 56 57 55 53 52 50 47 44 38 32 26 20 17 18 21 26 30 33
22 23 25 27 29 31 33 35 37 40 42 44 46 48 50 50 51 51 52 50 47 45 45 47 50 53 55 55 53 51 51 48 46 42 37 31 24 18 13 11 13 19 25 28
22 24 26 28 30 32 34 36 38 40 43 44 46 48 50 50 51 51 52 50 47 45 44 46 48 51 53 53 51 50 49 47 44 41 37 31 25 19 13 7 6 11 18 23
23 25 27 29 31 33 35 36 38 40 43 44 46 47 49 50 51 51 51 51 47 44 43 44 47 49 50 51 49 48 47 45 42 40 36 32 27 21 15 9 3 5 12 17
24 26 28 30 32 33 35 37 38 40 42 44 45 47 49 50 51 51 51 51 47 43 41 42 45 47 48 49 48 47 46 44 41 38 36 32 28 22 17 12 7 3 7 12
26 28 29 31 32 34 36 37 39 41 43 44 45 47 49 50 50 50 50 49 47 43 41 41 42 45 45 47 46 45 44 43 40 37 35 32 27 23 19 15 10 6 6 9
28 30 31 32 34 36 37 38 40 41 43 44 46 46 48 49 49 49 49 49 47 44 40 39 40 42 43 44 45 44 43 41 39 36 34 32 28 24 19 15 12 9 7 9
30 31 32 33 35 37 38 40 41 42 44 45 45 46 47 48 48 49 49 48 47 44 39 37 37 39 41 42 42 42 41 40 39 36 34 32 28 24 20 16 13 10 9 9
32 33 34 35 36 38 40 41 42 43 45 46 47 46 46 46 46 47 47 47 46 44 40 36 35 36 38 39 40 39 39 38 37 36 33 31 29 26 21 17 14 11 8 8
35 35 36 37 38 39 41 42 43 44 46 47 47 47 46 45 45 45 45 44 44 43 39 35 33 33 35 36 37 37 37 36 35 34 33 31 28 26 24 19 16 13 11 10
37 37 38 39 40 41 42 42 44 45 46 46 46 46 46 45 44 45 44 43 42 41 37 33 30 29 31 32 33 34 34 34 33 33 32 30 28 27 25 21 18 16 14 13
39 40 40 41 41 41 41 42 44 45 45 45 45 45 44 43 43 42 43 42 41 39 37 34 29 27 28 28 30 30 31 31 30 29 30 30 28 26 25 24 21 18 16 15
41 41 41 41 41 40 40 41 42 43 45 45 46 45 43 42 42 41 41 40 39 38 36 33 29 25 24 25 26 27 27 27 27 26 26 26 27 26 25 24 23 21 20 19
41 41 41 40 40 39 39 40 41 43 45 46 46 45 43 41 40 40 40 39 37 36 35 32 28 24 21 21 22 23 24 24 24 24 23 22 23 24 23 23 23 23 23 23
42 42 41 39 38 38 39 40 41 43 45 47 46 45 43 41 39 38 37 37 36 35 34 31 28 23 19 18 18 19 20 21 21 21 21 20 20 20 20 20 21 22 22 23
42 41 39 37 36 39 41 41 42 44 46 47 46 44 42 40 39 38 36 35 34 33 32 30 27 23 18 15 14 15 16 16 17 18 18 18 17 17 18 18 18 19 20 20
43 41 39 36 38 39 41 42 44 46 46 46 45 43 41 39 37 36 35 34 33 31 30 29 27 22 18 14 12 11 11 12 12 13 15 15 15 15 15 15 15 16 17 18
46 43 41 40 41 42 43 44 45 45 44 44 43 41 40 38 37 36 35 34 32 30 29 28 26 22 17 13 11 9 8 8 8 8 10 11 12 12 12 13 13 14 15 16
48 44 41 41 40 41 43 44 44 44 43 41 40 39 38 37 36 35 34 33 31 29 27 26 25 22 17 13 10 9 7 6 5 4 5 6 7 8 9 10 10 11 12 13
Wind_Direction
342 338 334 332 332 334 335 333 331 332 332 333 331 330 329 328 329 328 327 325 324 322 321 321 321 321 320 319 317 316 313 311 308 305 301 295 289 280 271 263 257 253 250 249
335 335 335 334 335 337 338 335 334 335 336 336 335 333 332 332 332 331 330 328 327 324 323 322 323 323 322 321 319 317 314 312 309 305 302 297 290 280 269 260 253 248 245 245
326 329 331 333 337 338 339 337 338 338 339 339 338 336 333 334 334 334 333 331 328 326 325 325 326 326 325 323 322 319 317 315 311 307 303 298 290 282 271 259 251 245 242 242
322 328 334 336 337 339 340 339 340 339 340 340 341 340 336 336 336 335 334 332 329 327 327 328 329 328 327 326 325 323 320 318 315 311 305 300 291 282 272 261 250 243 240 240
325 331 335 336 336 337 339 341 340 340 341 342 342 342 339 337 337 336 335 335 332 330 330 330 331 331 330 329 328 327 325 322 320 315 310 303 294 282 272 261 251 241 238 237
326 331 333 334 334 335 337 339 339 341 342 342 342 342 342 341 340 341 339 338 335 332 331 331 332 333 332 333 332 331 329 328 326 323 317 311 301 286 272 260 249 240 236 235
324 328 331 331 332 335 336 337 338 340 342 343 343 343 344 344 344 343 342 339 336 333 332 333 334 335 336 337 337 335 335 334 333 331 325 317 307 292 276 260 246 238 235 233
323 328 329 329 331 333 333 333 335 338 340 342 344 344 345 345 345 345 343 340 337 334 334 335 337 338 340 341 341 341 341 340 339 337 333 326 317 300 282 265 246 235 232 231
322 326 326 328 330 331 331 332 334 337 339 342 344 345 347 347 347 346 344 341 338 336 336 337 339 341 343 345 346 347 347 346 346 345 343 337 330 317 294 272 250 235 230 229
320 323 324 326 328 330 331 332 334 336 339 343 345 346 348 348 347 346 345 344 341 339 338 340 342 344 346 349 350 351 352 352 353 354 353 351 346 337 320 288 256 236 226 223
318 321 324 326 328 330 332 333 334 336 339 342 345 347 347 348 347 346 347 346 344 342 341 343 345 347 350 352 353 354 355 356 357 359 1 1 0 357 349 323 269 232 218 215
318 321 324 326 328 330 331 332 334 336 339 342 344 346 347 347 347 347 347 347 346 344 344 345 348 350 352 354 356 358 359 360 1 4 6 8 9 11 14 11 347 212 204 204
317 320 323 325 327 329 329 331 333 336 338 340 342 344 346 347 348 348 348 348 347 345 346 348 350 352 354 357 358 360 1 3 5 8 10 13 16 19 22 28 41 113 175 187
316 319 321 323 324 326 327 329 332 334 336 339 341 343 344 346 347 347 348 348 348 347 347 349 351 353 356 358 1 2 4 6 7 9 12 15 19 23 27 35 47 77 131 163
314 316 318 319 321 323 325 327 330 333 335 337 339 341 342 344 346 347 348 348 349 348 348 349 351 354 357 359 2 4 6 9 10 12 14 18 21 25 30 38 52 73 105 137
310 313 315 317 319 321 323 325 328 330 332 334 335 338 340 342 344 347 347 348 349 350 348 349 352 355 357 360 3 6 8 11 14 16 18 22 24 27 33 41 54 72 96 122
308 311 314 315 317 319 321 323 325 327 328 330 332 335 338 341 343 346 347 347 348 349 349 349 352 355 357 0 3 7 10 13 15 19 21 24 28 31 36 45 54 68 94 122
306 310 312 313 315 316 318 320 321 323 325 327 329 332 336 339 342 344 346 347 347 348 349 349 350 353 357 360 3 8 12 15 18 21 25 27 31 34 39 46 55 67 86 109
303 306 308 310 312 314 315 317 319 321 324 326 329 332 335 338 340 342 344 346 347 348 348 347 348 351 356 359 3 7 13 17 21 25 28 31 35 39 43 49 59 70 81 94
299 302 305 307 309 310 312 315 318 322 325 328 330 332 334 337 339 341 342 343 345 347 347 348 347 349 354 358 1 6 12 17 22 27 31 35 39 43 48 53 59 68 77 90
297 299 301 304 305 306 310 314 318 323 326 329 331 332 334 336 338 339 341 341 343 345 346 347 347 346 350 355 360 6 11 16 22 26 31 36 41 45 50 57 64 71 79 87
296 298 300 301 302 304 309 313 317 321 326 329 331 333 334 336 337 337 338 340 341 343 344 345 345 344 344 350 357 3 9 15 21 26 31 36 42 47 52 59 67 73 80 86
295 296 298 300 301 304 307 310 313 318 323 327 331 333 334 335 336 336 336 338 339 340 342 343 343 341 340 344 352 359 6 13 20 26 31 37 42 47 52 59 67 75 83 90
291 293 296 298 300 301 302 304 308 314 319 324 328 330 333 334 334 334 335 336 337 338 340 341 341 339 337 338 344 353 2 10 17 25 33 39 44 49 56 62 69 76 84 92
287 289 290 292 293 295 296 300 305 311 316 320 324 328 331 332 333 332 333 333 334 335 338 340 339 338 334 330 332 339 351 3 13 22 32 41 47 52 58 66 73 78 85 93
284 285 285 286 286 287 292 297 303 308 313 317 321 325 329 330 331 331 331 332 332 333 335 337 338 336 332 325 321 323 330 345 1 15 26 36 46 54 62 71 80 86 92 99
282 284 283 282 284 287 291 295 299 304 308 313 317 322 326 328 328 329 330 330 331 331 333 335 337 336 332 323 311 305 304 310 322 345 7 23 38 52 64 74 83 93 100 105
Height
5842 5840 5837 5834 5831 5828 5825 5821 5816 5812 5806 5800 5793 5786 5778 5770 5761 5752 5743 5733 5724 5714 5706 5698 5690 5681 5672 5662 5652 5641 5631 5621 5612 5604 5597 5593 5589 5586 5585 5584 5585 5586 5588 5590
5841 5838 5835 5832 5829 5825 5822 5817 5813 5807 5802 5795 5787 5778 5770 5762 5753 5744 5734 5725 5715 5706 5698 5689 5681 5671 5661 5650 5638 5627 5615 5604 5594 5584 5577 5571 5567 5565 5564 5565 5567 5569 5571 5574
5839 5836 5834 5830 5826 5822 5818 5814 5808 5802 5798 5790 5783 5773 5763 5755 5746 5735 5726 5716 5707 5698 5689 5680 5671 5661 5650 5638 5625 5612 5599 5587 5576 5565 5557 5550 5546 5544 5544 5545 5548 5551 5555 5559
5837 5835 5830 5829 5823 5819 5815 5810 5804 5798 5791 5784 5777 5768 5756 5746 5737 5727 5718 5708 5699 5689 5680 5671 5661 5650 5638 5625 5612 5598 5584 5571 5559 5548 5539 5531 5525 5523 5523 5525 5528 5533 5538 5544
5834 5830 5826 5823 5818 5814 5810 5806 5800 5793 5786 5778 5771 5764 5754 5743 5732 5721 5710 5700 5690 5681 5671 5662 5652 5640 5627 5614 5599 5584 5570 5556 5543 5530 5520 5512 5507 5504 5504 5506 5510 5515 5522 5528
5830 5826 5822 5821 5815 5810 5806 5801 5795 5787 5780 5772 5763 5756 5749 5737 5726 5714 5703 5692 5683 5673 5664 5654 5643 5631 5617 5603 5588 5573 5557 5543 5529 5515 5504 5496 5491 5488 5488 5490 5494 5499 5506 5513
5826 5823 5820 5817 5811 5807 5802 5797 5789 5782 5775 5767 5757 5748 5738 5728 5717 5706 5695 5685 5676 5666 5657 5647 5635 5623 5609 5594 5578 5562 5547 5532 5518 5505 5493 5485 5479 5476 5475 5477 5481 5486 5493 5500
5823 5820 5818 5813 5808 5804 5799 5792 5785 5778 5771 5763 5754 5744 5733 5723 5712 5701 5690 5680 5670 5661 5651 5640 5628 5616 5602 5587 5571 5555 5540 5525 5511 5498 5486 5477 5471 5467 5466 5467 5470 5475 5482 5489
5820 5818 5813 5808 5804 5799 5793 5787 5781 5774 5766 5758 5749 5739 5728 5718 5707 5696 5685 5675 5665 5655 5645 5634 5622 5610 5596 5581 5566 5551 5536 5521 5507 5494 5482 5472 5466 5461 5459 5460 5462 5466 5473 5480
5815 5812 5809 5804 5800 5794 5788 5782 5776 5768 5761 5752 5743 5733 5723 5713 5703 5693 5682 5671 5660 5650 5640 5630 5618 5605 5591 5577 5562 5547 5533 5519 5505 5493 5481 5471 5464 5459 5456 5455 5456 5460 5465 5472
5811 5808 5804 5800 5795 5789 5783 5777 5770 5763 5755 5746 5738 5728 5718 5709 5699 5689 5678 5667 5655 5645 5635 5625 5614 5602 5588 5574 5560 5546 5532 5519 5506 5494 5483 5474 5466 5460 5456 5455 5455 5457 5461 5467
5807 5803 5799 5795 5790 5784 5778 5772 5765 5758 5750 5741 5733 5724 5715 5705 5695 5685 5674 5663 5652 5642 5632 5622 5611 5599 5586 5573 5559 5546 5533 5521 5509 5497 5487 5478 5470 5464 5460 5457 5456 5457 5460 5465
5802 5798 5794 5789 5784 5779 5773 5767 5760 5753 5746 5738 5729 5720 5711 5701 5691 5681 5671 5660 5649 5639 5629 5619 5609 5598 5586 5573 5560 5547 5535 5523 5512 5501 5491 5483 5475 5469 5465 5462 5460 5460 5462 5466
5796 5793 5789 5784 5780 5774 5769 5762 5756 5748 5741 5733 5725 5716 5707 5697 5688 5678 5668 5658 5647 5636 5626 5617 5607 5597 5585 5574 5562 5550 5538 5526 5516 5506 5497 5488 5481 5475 5471 5468 5466 5465 5466 5469
5791 5788 5784 5779 5775 5769 5763 5757 5750 5743 5736 5728 5720 5712 5703 5694 5685 5675 5665 5655 5644 5634 5624 5616 5606 5597 5586 5575 5564 5553 5542 5531 5520 5511 5502 5494 5487 5481 5477 5474 5472 5471 5472 5473
5786 5782 5778 5774 5769 5763 5758 5751 5745 5738 5731 5724 5716 5708 5699 5690 5681 5671 5661 5651 5642 5633 5623 5615 5606 5597 5588 5578 5567 5557 5546 5536 5526 5517 5508 5500 5493 5488 5483 5480 5478 5477 5477 5478
5780 5776 5772 5767 5762 5757 5751 5745 5739 5732 5725 5718 5711 5703 5695 5687 5678 5669 5659 5649 5640 5631 5622 5613 5605 5597 5589 5580 5571 5561 5551 5541 5532 5523 5515 5507 5500 5494 5489 5486 5484 5482 5482 5483
5772 5769 5765 5760 5755 5750 5744 5739 5732 5726 5719 5712 5704 5697 5689 5682 5674 5665 5657 5648 5638 5629 5620 5612 5605 5598 5590 5582 5574 5565 5556 5547 5538 5530 5522 5515 5508 5502 5497 5493 5490 5488 5487 5488
5764 5761 5757 5752 5747 5742 5737 5732 5726 5719 5713 5706 5698 5691 5683 5676 5668 5660 5653 5645 5637 5629 5620 5612 5605 5598 5592 5585 5577 5569 5561 5553 5545 5538 5530 5523 5517 5511 5505 5501 5497 5496 5494 5494
5756 5752 5748 5743 5738 5734 5729 5724 5718 5712 5706 5699 5693 5686 5678 5671 5664 5657 5649 5642 5634 5627 5619 5611 5604 5598 5593 5587 5580 5573 5566 5559 5552 5545 5539 5532 5526 5520 5515 5510 5507 5504 5502 5501
5746 5742 5738 5734 5730 5725 5721 5716 5711 5705 5699 5693 5687 5680 5673 5666 5659 5653 5646 5639 5632 5624 5617 5610 5604 5598 5593 5588 5583 5576 5570 5564 5558 5552 5546 5541 5535 5530 5525 5520 5517 5514 5511 5510
5734 5731 5728 5724 5720 5716 5713 5708 5703 5698 5692 5686 5680 5674 5667 5661 5655 5648 5642 5636 5629 5622 5615 5609 5602 5597 5592 5588 5584 5579 5574 5568 5563 5558 5553 5548 5543 5539 5535 5531 5527 5525 5522 5521
5723 5720 5717 5715 5711 5708 5704 5700 5695 5690 5685 5680 5674 5668 5662 5656 5650 5645 5639 5632 5626 5620 5613 5607 5601 5596 5592 5588 5584 5581 5576 5572 5567 5563 5558 5554 5551 5547 5544 5541 5538 5535 5533 5532
5712 5710 5708 5705 5702 5699 5695 5691 5687 5683 5678 5673 5668 5662 5657 5651 5644 5639 5633 5628 5622 5617 5611 5605 5599 5594 5590 5587 5584 5581 5578 5575 5571 5567 5564 5560 5557 5554 5552 5549 5547 5545 5544 5543
5701 5699 5697 5695 5693 5690 5686 5682 5678 5675 5671 5666 5661 5656 5651 5645 5640 5634 5629 5623 5618 5613 5608 5603 5597 5592 5588 5585 5583 5581 5579 5576 5574 5571 5568 5565 5563 5560 5558 5557 5555 5554 5553 5552
5688 5687 5686 5685 5682 5679 5676 5673 5669 5666 5663 5659 5655 5650 5645 5639 5634 5629 5624 5619 5614 5609 5605 5600 5595 5590 5586 5583 5581 5580 5578 5577 5575 5573 5571 5569 5567 5565 5564 5562 5561 5561 5560 5560
5675 5675 5674 5673 5671 5668 5666 5663 5661 5658 5655 5652 5648 5644 5639 5634 5629 5624 5619 5614 5610 5605 5601 5596 5592 5587 5584 5581 5579 5578 5577 5576 5575 5574 5573 5572 5570 5569 5568 5567 5567 5566 5566 5566